Kaktovik, AK

7:55 PM AKDT on August 24, 2016 (GMT -0800)
Barter Island LRRS

Weather History for PABA - April, 2014

Change the Weather History Date:

Monday, April 21, 2014

  Actual Average Record
Temperature  
Mean Temperature 8 °F -  
Max Temperature 12 °F 13 °F 26 °F (2016)
Min Temperature 0 °F 0 °F -13 °F (1997)
Degree Days  
Heating Degree Days 56    
Moisture  
Dew Point 7 °F    
Average Humidity 87    
Maximum Humidity 92    
Minimum Humidity 84    
Precipitation  
Precipitation 0.00 in - - ()
Sea Level Pressure  
Sea Level Pressure 30.21 in    
Wind  
Wind Speed 16 mph (East)    
Max Wind Speed 22 mph    
Max Gust Speed -    
Visibility 10 miles    
Events Snow    
Averages and records for this station are not official NWS values.
T = Trace of Precipitation, MM = Missing Value Source: NWS Daily Summary

Daily Weather History Graph

Daily Weather History Graph

Search for Another Location

Airport or City:

Trip Planner

Search our weather history database for the weather conditions in past years. The results will help you decide how hot, cold, wet, or windy it might be!

Date:

Astronomy

Apr. 21, 2014 Rise Set
Actual Time 4:57 AM AKDT 10:12 PM AKDT
Civil Twilight 3:17 AM AKDT 11:56 PM AKDT
Nautical Twilight Sun does not set Sun does not set
Astronomical Twilight Sun does not set Sun does not set
Moon 4:48 AM AKDT (4/21) 9:39 AM AKDT (4/21)
Length of Visible Light 20h 39m
Length of Day
17h 15m
Waning Gibbous, 56% of the Moon is Illuminated
Apr 21
Waning Gibbous
Apr 21
Last Quarter
Apr 28
New
May 6
First Quarter
May 14
Full

Hourly Weather History & Observations

Time (AKDT) Temp. Windchill Dew Point Humidity Pressure Visibility Wind Dir Wind Speed Gust Speed Precip Events Conditions
12:01 AM 1.0 °F -16.6 °F -2.0 °F 87% 30.26 in 10.0 mi ENE 12.7 mph - N/A   Clear
1:01 AM -0.0 °F -18.7 °F -2.9 °F 88% 30.26 in 10.0 mi ENE 13.8 mph - N/A   Clear
2:01 AM -0.9 °F -19.9 °F -4.0 °F 87% 30.26 in 10.0 mi ENE 13.8 mph - N/A   Clear
3:01 AM 1.0 °F -17.3 °F -2.0 °F 87% 30.25 in 10.0 mi ENE 13.8 mph - N/A   Clear
4:01 AM 1.9 °F -17.5 °F -0.9 °F 88% 30.25 in 10.0 mi ENE 16.1 mph - N/A   Clear
5:01 AM 1.0 °F -18.7 °F -2.0 °F 87% 30.24 in 10.0 mi ENE 16.1 mph - N/A   Clear
5:23 AM 1.4 °F -17.6 °F -0.4 °F 92% 30.24 in 9.0 mi ENE 15.0 mph - 0.00 in Snow Light Snow
5:32 AM 3.2 °F -15.9 °F 1.4 °F 92% 30.24 in 9.0 mi ENE 16.1 mph - 0.00 in Snow Light Snow
6:01 AM 7.0 °F -12.1 °F 5.0 °F 92% 30.24 in 9.0 mi East 18.4 mph - 0.00 in Snow Light Snow
7:01 AM 8.6 °F -10.0 °F 5.0 °F 85% 30.23 in 9.0 mi East 18.4 mph - 0.00 in Snow Light Snow
7:07 AM 8.6 °F -10.5 °F 5.0 °F 85% 30.23 in 9.0 mi East 19.6 mph - 0.00 in Snow Light Snow
7:13 AM 8.1 °F -10.2 °F 5.0 °F 87% 30.24 in 9.0 mi East 17.3 mph - 0.00 in Snow Light Snow
7:28 AM 8.6 °F -9.5 °F 5.0 °F 85% 30.24 in 9.0 mi East 17.3 mph - 0.00 in Snow Light Snow
8:01 AM 8.1 °F -9.6 °F 5.0 °F 87% 30.23 in 10.0 mi East 16.1 mph - 0.00 in   Clear
9:01 AM 9.0 °F -10.0 °F 6.1 °F 88% 30.22 in 9.0 mi East 19.6 mph - 0.00 in Snow Light Snow
10:01 AM 10.0 °F -8.1 °F 7.0 °F 87% 30.22 in 10.0 mi East 18.4 mph - 0.00 in   Clear
11:01 AM 12.9 °F -4.4 °F 9.0 °F 84% 30.21 in 7.0 mi East 18.4 mph - 0.00 in   Clear
12:01 PM 15.1 °F -2.0 °F 12.0 °F 88% 30.21 in 10.0 mi East 19.6 mph - 0.00 in   Clear
1:01 PM 17.1 °F 1.0 °F 12.9 °F 84% 30.20 in 10.0 mi East 18.4 mph - 0.00 in   Clear
2:01 PM 17.1 °F 0.6 °F 12.9 °F 84% 30.20 in 10.0 mi East 19.6 mph - 0.00 in Snow Light Snow
3:01 PM 17.1 °F 0.6 °F 12.9 °F 84% 30.20 in 10.0 mi East 19.6 mph - 0.00 in   Clear
4:01 PM 17.1 °F 0.6 °F 14.0 °F 88% 30.18 in 10.0 mi East 19.6 mph - N/A   Clear
5:01 PM 17.1 °F 0.6 °F 14.0 °F 88% 30.17 in 9.0 mi East 19.6 mph - 0.00 in   Clear
6:01 PM 17.1 °F 1.0 °F 14.0 °F 88% 30.16 in 10.0 mi East 18.4 mph - N/A   Clear
7:01 PM 16.0 °F 0.6 °F 12.9 °F 88% 30.15 in 10.0 mi East 16.1 mph - N/A   Clear
8:01 PM 15.1 °F 0.5 °F 12.0 °F 88% 30.15 in 10.0 mi East 13.8 mph - N/A   Clear
9:01 PM 14.0 °F -3.4 °F 10.9 °F 88% 30.13 in 10.0 mi East 19.6 mph - N/A   Clear
10:01 PM 14.0 °F -4.3 °F 10.9 °F 88% 30.12 in 8.0 mi East 21.9 mph - N/A   Clear
11:01 PM 12.9 °F -4.9 °F 10.9 °F 92% 30.12 in 10.0 mi East 19.6 mph - N/A   Clear